Location: Waco, TX
(31.5480°N, 97.1670°W)
Time: 06:38:35
(UTC-05:00)

ISS - Pass Details

Date: 02 October 2022
Orbit: 414 x 417 km, 51.6° (Epoch: 01 October)

Event Time Altitude Azimuth Distance (km) Brightness Sun altitude
Rises 13:56:32 0° 239° (WSW) 2,337 0.4 53.5°
Reaches altitude 10° 13:58:42 10° 248° (WSW) 1,478 -0.5 53.4°
Maximum altitude 14:01:50 39° 318° (NW) 637 -2.6 53.1°
Drops below altitude 10° 14:04:59 10° 30° (NNE) 1,487 -1.2 52.9°
Sets 14:07:10 0° 38° (NE) 2,353 -0.3 52.8°
